DMSP 5D-2 F13 DEB, 40400

Orbit data source: Space-Track

DMSP 5D-2 F13 DEB, 40400 is space debris in SSO originally from a launch on Fri, 24 Mar 1995 UTC launched from the Air Force Western Test Range (AFWTR). Debris objects in space refer to the collection of defunct objects orbiting the Earth. Examples of debris include non-operational satellites, rocket bodies, and fragments generated from explosions, collisions, or faulty payload assembly.

Loading next visibility...
Identifier
40400, 1995-015M
Orbit
SSO
Country
Flag of USUS
Related business
Manufacturer
Unknown
Mission
Spacecraft
Bus & Motor
Unknown
Mass
Unknown
Launch date (UTC)
1995-03-24 (31 years ago)
Launch vehicle
Unknown
Launch site
Air Force Western Test Range (AFWTR)
Object type
Payload
Rocket body
Debris
Shape & HBR
Unknown shape, 0.1 m
Radar Cross Section
Small (<0.1 m²)

Expand to show TLE details & history
Last TLE update: 18 hours ago

TLE from 18 hours ago
0 DMSP 5D-2 F13 DEB
1 40400U 95015M   26034.87730468  .00002657  00000-0  73674-3 0  9996
2 40400  98.4814  65.4548 0131854  49.4055 311.8519 14.42387175571918
Epoch: 2026-02-03T21:03Z
TLE epoch observation values (Epoch: 2026-02-03T21:03:19.124Z)
Latitude
-0.00009°
Longitude
-24.4268°
Altitude
691.544 km
Speed
7.543 km/s
True Right ascension
04h 21m 49s
True Declination
0° 00' 00"
Sunlit
Object was in daylight at epoch
Visualization orbit readout
Latitude
Unknown
Longitude
Unknown
Altitude
Unknown
Speed
Unknown
Apparent Right ascension
Unknown
Apparent Declination
Unknown
Sunlit
N/A
Visualization observer readout
Local Sidereal Time
17:20:12
Azimuth
Unknown
Elevation
Unknown
Doppler factor
Unknown
Orbital elements
Apogee altitude
841.697 km
Perigee altitude
653.782 km
Semi-major axis
7,125.876 km
Eccentricity
0.01319
Inclination
98.4814°
RAAN
65.4548°
Arg. of periapsis
49.4055°
True anomaly
310.71401°
Mean anomaly
311.8519°
Eccentric anomaly
311.28421°
Mean motion
3.60816 °/min
Orbital period
99.77 mins
BSTAR
0.00073674
Loading maneuver chart data...
Computing Atmospheric mass density...

Documentation

Showing up to 5 results
|